Regional Weather Roundup
Issued by NWS

Home | Current Version | Previous Version | Text Only | Print | Product List | Glossary Off
Versions: 1 2 3 4 5 6 7 8 9 10 11 12 13 14 15 16 17 18 19 20 21 22 23 24 25 26 27 28 29 30 31 32 33 34 35 36 37 38 39 40 41 42 43 44 45 46 47 48 49 50

000
ASUS43 KDTX 242310
RWRMI
MICHIGAN HOURLY REGIONAL WEATHER ROUNDUP
NATIONAL WEATHER SERVICE DETROIT/PONTIAC MI
700 PM EDT THU MAY 24 2018

NOTE: "FAIR" INDICATES FEW OR NO CLOUDS BELOW 12,000 FEET WITH NO
SIGNIFICANT WEATHER AND/OR OBSTRUCTION TO VISIBILITY.

MIZ047>049-052>055-059>063-066>070-074>076-081>083-250000-
SOUTHEAST LOWER MICHIGAN

CITY           SKY/WX    TMP DP  RH WIND       PRES   REMARKS
ADRIAN         FAIR      80  46  30 W5        30.12F
ALMA           FAIR      80  51  36 S12G20    30.08F
ANN ARBOR      FAIR      78  52  40 SW7       30.11F
BAD AXE        FAIR      80  50  35 W7        30.08F
CARO           FAIR      80  49  33 SW7       30.07F
DETROIT CITY   FAIR      79  47  32 S10       30.10F
DETROIT        FAIR      79  50  36 S12       30.11F
FLINT          FAIR      80  49  33 SW8       30.09F
GROSSE ILE     FAIR      74  49  40 SE7       30.10F
HILLSDALE      FAIR      79  43  27 SW5       30.12F
HOWELL         FAIR      79  47  31 SW6       30.11F

CITY           SKY/WX    TMP DP  RH WIND       PRES   REMARKS
JACKSON        FAIR      80  50  34 SW5       30.11F
LAMBERTVILLE   FAIR      80  48  33 E7        30.11F
LANSING        FAIR      80  52  37 SW7       30.10F
LAPEER         FAIR      81  47  30 W9        30.09F
MASON          FAIR      81  47  29 SW6       30.10F
MONROE         FAIR      76  47  35 SE5       30.11S
MT. CLEMENS    MOSUNNY   76  48  36 S12       30.09F
PONTIAC        FAIR      80  48  32 VRB6      30.09F
PORT HOPE        N/A     62  55  77 SE6       30.06F
PORT HURON     FAIR      79  41  25 S9        30.10F
TRI CITIES     FAIR      82  51  34 SW9       30.08F
MIDLAND        FAIR      81  54  39 S9        30.06F
TROY           FAIR      82  43  25 S8        30.11F
SAGINAW HB     FAIR      82  43  24 SW9       30.07F
$$
MIZ043>046-050>051-056>058-064>065-071>073-077>080-250000-
SOUTHWEST LOWER MICHIGAN

CITY           SKY/WX    TMP DP  RH WIND       PRES   REMARKS
BATTLE CREEK   FAIR      80  49  33 SW5       30.11F
BENTON HARBOR  FAIR      80  53  39 VRB5      30.08F
BIG RAPIDS     FAIR      79  46  30 SW8       30.08F
COLDWATER      FAIR      80  38  22 SW3       30.11F
FREMONT        FAIR      79  53  41 SW9       30.08F
HOLLAND        FAIR      79  54  41 W7        30.09F
GRAND RAPIDS   FAIR      82  57  42 S7        30.08F
IONIA          FAIR      82  52  35 SW9       30.08F
KALAMAZOO      FAIR      81  49  32 S7        30.10F
LUDINGTON      FAIR      74  54  49 SW9       30.07F
MARSHALL       FAIR      79  42  27 S3        30.11S
MOUNT PLEASANT FAIR      82  55  38 SW8       30.06F
MUSKEGON       FAIR      77  52  41 SW8       30.09F
SOUTH HAVEN    FAIR      79  51  36 W3        30.09F
$$
MIZ016>042-250000-
NORTHERN LOWER MICHIGAN

CITY           SKY/WX    TMP DP  RH WIND       PRES   REMARKS
ALPENA         FAIR      77  58  51 NE10      30.03F
BEAVER ISLAND  FAIR      71  47  42 SW15G21   30.03F
BELLAIRE       FAIR      81  47  30 W3        30.03F
CADILLAC       FAIR      80  51  36 SW9       30.06F
CHARLEVOIX     FAIR      76  50  40 SW5       30.05F
FRANKFORT      FAIR      74  50  42 S6G20     30.05F
GAYLORD        FAIR      79  52  38 VRB3      30.05F
GRAYLING       FAIR      83  45  26 W7        30.03F
HARBOR SPRINGS FAIR      62  49  61 CALM      30.04F
HOUGHTON LAKE  FAIR      81  51  35 SW7       30.06F
MANISTEE       FAIR      77  51  40 SW14G20   30.06F
OSCODA         FAIR      81  47  30 S9G18     30.02F
PELLSTON       FAIR      77  46  33 SW7       30.03F
ROGERS CITY    FAIR      66  54  64 E5        30.04F
TRAVERSE CITY  FAIR      83  51  33 SW10      30.01F
$$
MIZ007>008-015-250000-
EASTERN UPPER MICHIGAN

CITY           SKY/WX    TMP DP  RH WIND       PRES   REMARKS
KINROSS        FAIR      73  54  51 W8        30.02F
MACKINAC ISLAN FAIR      64  48  55 SW7       30.02F
NEWBERRY       FAIR      71  51  49 S14G21    30.00F
S. S. MARIE    FAIR      73  57  57 W6        30.00F
MUNISING         N/A     74  62  66 S9        29.95F
$$
MIZ004>006-011>014-085-250000-
CENTRAL UPPER MICHIGAN

CITY           SKY/WX    TMP DP  RH WIND       PRES   REMARKS
MANISTIQUE     FAIR      57  53  86 SW8G16    30.01F
ESCANABA       FAIR      70  52  52 S8        29.99F
MENOMINEE      FAIR      76  58  53 S12       29.99F
SAWYER-GWINN   SUNNY     75  63  64 S9        29.98F
$$
MIZ001>003-009>011-084-250000-
WESTERN UPPER MICHIGAN

CITY           SKY/WX    TMP DP  RH WIND       PRES   REMARKS
IRON MOUNTAIN  FAIR      81  64  56 SE7       29.96F
HOUGHTON       CLOUDY    76  63  64 S5        29.94F
COPPER HARBOR    N/A     72  61  68 SW8       29.92F
IRONWOOD       FAIR      79  66  64 S3        29.93F
$$

ABBREVIATIONS USED IN REMARKS
   TC - TEMPERATURE IN CELSIUS
  WCI - WIND CHILL INDEX
   HX - HEAT INDEX
  VSB - VISIBILITY




USA.gov is the U.S. government's official web portal to all federal, state and local government web resources and services.